Satellite: CO-58
Catalog number: 28895
Epoch time: 14365.51388300
Element set: 958
Inclination: 097.8213 deg
RA of node: 197.0606 deg
Eccentricity: 0.0018508
Arg of perigee: 106.9905 deg
Mean anomaly: 253.3328 deg
Mean motion: 14.62384456 rev/day
Decay rate: 9.98e-06 rev/day^2
Epoch rev: 48908
Checksum: 359
Satellite: FALCON
Catalog number: 30776
Epoch time: 14365.38522416
Element set: 39
Inclination: 035.4294 deg
RA of node: 329.9439 deg
Eccentricity: 0.0004493
Arg of perigee: 242.6460 deg
Mean anomaly: 251.8088 deg
Mean motion: 15.20354865 rev/day
Decay rate: 1.2016e-04 rev/day^2
Epoch rev: 43071
Checksum: 298
Satellite: MAST
Catalog number: 31126
Epoch time: 15001.19968846
Element set: 241
Inclination: 097.9395 deg
RA of node: 337.0685 deg
Eccentricity: 0.0092894
Arg of perigee: 096.8179 deg
Mean anomaly: 331.5239 deg
Mean motion: 14.55701136 rev/day
Decay rate: 7.60e-06 rev/day^2
Epoch rev: 40919
Checksum: 328
Satellite: CAPE1
Catalog number: 31130
Epoch time: 14365.48660679
Element set: 246
Inclination: 097.9611 deg
RA of node: 333.3133 deg
Eccentricity: 0.0099410
Arg of perigee: 117.7382 deg
Mean anomaly: 243.3941 deg
Mean motion: 14.55016710 rev/day
Decay rate: 9.57e-06 rev/day^2
Epoch rev: 40849
Checksum: 301
Satellite: COMPASS
Catalog number: 32787
Epoch time: 15001.67589927
Element set: 141
Inclination: 097.6763 deg
RA of node: 054.3924 deg
Eccentricity: 0.0012201
Arg of perigee: 241.5613 deg
Mean anomaly: 118.4376 deg
Mean motion: 14.89450061 rev/day
Decay rate: 4.207e-05 rev/day^2
Epoch rev: 36171
Checksum: 293
Satellite: AAUSAT2
Catalog number: 32788
Epoch time: 15001.10701337
Element set: 127
Inclination: 097.6777 deg
RA of node: 055.0874 deg
Eccentricity: 0.0011711
Arg of perigee: 241.4945 deg
Mean anomaly: 118.5094 deg
Mean motion: 14.90338008 rev/day
Decay rate: 3.530e-05 rev/day^2
Epoch rev: 36170
Checksum: 281
Satellite: DO-64
Catalog number: 32789
Epoch time: 15001.17401203
Element set: 174
Inclination: 097.6969 deg
RA of node: 063.7650 deg
Eccentricity: 0.0010959
Arg of perigee: 220.7710 deg
Mean anomaly: 201.5547 deg
Mean motion: 14.96801580 rev/day
Decay rate: 8.760e-05 rev/day^2
Epoch rev: 36207
Checksum: 306
Satellite: CO-66
Catalog number: 32791
Epoch time: 15001.42377469
Element set: 124
Inclination: 097.6754 deg
RA of node: 052.4618 deg
Eccentricity: 0.0012900
Arg of perigee: 248.2127 deg
Mean anomaly: 111.7717 deg
Mean motion: 14.87790329 rev/day
Decay rate: 1.942e-05 rev/day^2
Epoch rev: 36151
Checksum: 308
Satellite: RS-30
Catalog number: 32953
Epoch time: 15001.79077377
Element set: 609
Inclination: 082.5047 deg
RA of node: 077.7271 deg
Eccentricity: 0.0019405
Arg of perigee: 084.8579 deg
Mean anomaly: 275.4715 deg
Mean motion: 12.43054557 rev/day
Decay rate: 1.0e-07 rev/day^2
Epoch rev: 29993
Checksum: 322
Satellite: METEOR-M
Catalog number: 35865
Epoch time: 15001.72911874
Element set: 216
Inclination: 098.5231 deg
RA of node: 047.8477 deg
Eccentricity: 0.0001749
Arg of perigee: 234.7370 deg
Mean anomaly: 125.3645 deg
Mean motion: 14.21975051 rev/day
Decay rate: 1.56e-06 rev/day^2
Epoch rev: 27455
Checksum: 300
Satellite: RS-38
Catalog number: 35869
Epoch time: 15001.79450233
Element set: 124
Inclination: 098.5163 deg
RA of node: 047.6213 deg
Eccentricity: 0.0003732
Arg of perigee: 236.3050 deg
Mean anomaly: 123.7756 deg
Mean motion: 14.22260352 rev/day
Decay rate: 8.6e-07 rev/day^2
Epoch rev: 27460
Checksum: 280
Satellite: JUGNU
Catalog number: 37839
Epoch time: 14365.72683362
Element set: 764
Inclination: 019.9612 deg
RA of node: 137.6328 deg
Eccentricity: 0.0019240
Arg of perigee: 001.1128 deg
Mean anomaly: 132.2659 deg
Mean motion: 14.12400361 rev/day
Decay rate: 4.24e-06 rev/day^2
Epoch rev: 16651
Checksum: 278
Satellite: SRMSAT
Catalog number: 37841
Epoch time: 14365.71458251
Element set: 768
Inclination: 019.9712 deg
RA of node: 161.0073 deg
Eccentricity: 0.0011958
Arg of perigee: 293.9696 deg
Mean anomaly: 190.4777 deg
Mean motion: 14.10425460 rev/day
Decay rate: 3.77e-06 rev/day^2
Epoch rev: 16627
Checksum: 321
Satellite: RAX-2
Catalog number: 37853
Epoch time: 15001.20390247
Element set: 2
Inclination: 101.7038 deg
RA of node: 130.6886 deg
Eccentricity: 0.0205676
Arg of perigee: 202.8743 deg
Mean anomaly: 232.5162 deg
Mean motion: 14.92964641 rev/day
Decay rate: 1.3257e-04 rev/day^2
Epoch rev: 17216
Checksum: 278
Satellite: AUBIESAT
Catalog number: 37854
Epoch time: 14365.93682142
Element set: 1
Inclination: 101.7094 deg
RA of node: 132.9233 deg
Eccentricity: 0.0202386
Arg of perigee: 199.5135 deg
Mean anomaly: 280.9675 deg
Mean motion: 14.94701944 rev/day
Decay rate: 1.6039e-04 rev/day^2
Epoch rev: 17220
Checksum: 299
Satellite: HRBE
Catalog number: 37855
Epoch time: 15001.34099337
Element set: 22
Inclination: 101.7076 deg
RA of node: 132.5406 deg
Eccentricity: 0.0205327
Arg of perigee: 200.4564 deg
Mean anomaly: 158.8330 deg
Mean motion: 14.93771542 rev/day
Decay rate: 1.4374e-04 rev/day^2
Epoch rev: 17221
Checksum: 270
Satellite: RS-39
Catalog number: 38051
Epoch time: 14288.65876392
Element set: 41
Inclination: 051.5964 deg
RA of node: 324.1908 deg
Eccentricity: 0.0006422
Arg of perigee: 269.6897 deg
Mean anomaly: 186.8903 deg
Mean motion: 16.43533377 rev/day
Decay rate: 7.0201582e-01 rev/day^2
Epoch rev: 15308
Checksum: 345
Satellite: E-STAR
Catalog number: 38079
Epoch time: 15001.82938381
Element set: 146
Inclination: 069.4213 deg
RA of node: 168.3676 deg
Eccentricity: 0.0115556
Arg of perigee: 056.0427 deg
Mean anomaly: 305.1662 deg
Mean motion: 15.85974047 rev/day
Decay rate: 6.00559e-03 rev/day^2
Epoch rev: 15390
Checksum: 319
Satellite: GOLIAT
Catalog number: 38085
Epoch time: 15001.94386976
Element set: 682
Inclination: 069.4280 deg
RA of node: 182.7753 deg
Eccentricity: 0.0183995
Arg of perigee: 064.3378 deg
Mean anomaly: 095.9654 deg
Mean motion: 15.61800251 rev/day
Decay rate: 2.48034e-03 rev/day^2
Epoch rev: 15354
Checksum: 339
Satellite: HORYU-2
Catalog number: 38340
Epoch time: 15001.45562499
Element set: 60
Inclination: 098.2916 deg
RA of node: 327.4019 deg
Eccentricity: 0.0010687
Arg of perigee: 266.4424 deg
Mean anomaly: 093.5561 deg
Mean motion: 14.73514808 rev/day
Decay rate: 1.946e-05 rev/day^2
Epoch rev: 14097
Checksum: 308
Satellite: RS-40
Catalog number: 38735
Epoch time: 15001.43998431
Element set: 911
Inclination: 082.4751 deg
RA of node: 163.9395 deg
Eccentricity: 0.0017025
Arg of perigee: 182.9199 deg
Mean anomaly: 177.1780 deg
Mean motion: 12.42565960 rev/day
Decay rate: 4.0e-07 rev/day^2
Epoch rev: 11020
Checksum: 296
Satellite: PROITERES
Catalog number: 38756
Epoch time: 15001.39235258
Element set: 551
Inclination: 098.2224 deg
RA of node: 097.9322 deg
Eccentricity: 0.0013414
Arg of perigee: 109.5346 deg
Mean anomaly: 250.7287 deg
Mean motion: 14.75446393 rev/day
Decay rate: 1.521e-05 rev/day^2
Epoch rev: 12440
Checksum: 289
Satellite: BEESAT-3
Catalog number: 39134
Epoch time: 15001.91959481
Element set: 810
Inclination: 064.8737 deg
RA of node: 228.2131 deg
Eccentricity: 0.0035250
Arg of perigee: 274.3840 deg
Mean anomaly: 085.3763 deg
Mean motion: 15.08912555 rev/day
Decay rate: 4.227e-05 rev/day^2
Epoch rev: 9358
Checksum: 304
